Regional Weather Roundup
Issued by NWS

Home | Current Version | Previous Version | Text Only | Print | Product List | Glossary Off
Versions: 1 2 3 4 5 6 7 8 9 10 11 12 13 14 15 16 17 18 19 20 21 22 23 24 25 26 27 28 29 30 31 32 33 34 35 36 37 38 39 40 41 42 43 44 45 46 47

000
ASUS45 KCYS 261610
RWRWY

WYOMING REGIONAL WEATHER ROUNDUP
NATIONAL WEATHER SERVICE CHEYENNE WY
900 AM MST MON JAN 26 2015

NOTE:  "FAIR" INDICATES FEW OR NO CLOUDS BELOW 12,000 FEET
WITH NO SIGNIFICANT WEATHER AND/OR OBSTRUCTIONS TO VISIBILITY.

WYZ001-261700-
YELLOWSTONE NATIONAL PARK

CITY           SKY/WX    TMP DP  RH WIND       PRES   REMARKS
LK YELLOWSTONE   N/A     13  10  88 CALM      30.47S
W YELLOWSTONE  NOT AVBL

$$
WYZ002>013-054>058-071-098>099-261700-
NORTHERN WYOMING

CITY           SKY/WX    TMP DP  RH WIND       PRES   REMARKS
JACKSON        CLOUDY    25  25 100 VRB6      30.48S FOG     WCI  18
CODY           FAIR      39  32  75 CALM      30.19F
GREYBULL       FAIR      17  17 100 SW3       30.25S
WORLAND        FAIR      19  16  88 S7        30.24S WCI  10
SHERIDAN       FAIR      47  28  47 NE3       30.10F
BUFFALO        FAIR      57  27  31 CALM      30.15S
GILLETTE       FAIR      51  29  42 W10       30.12S
HULETT           N/A    N/A N/A N/A MISG        N/A
NEWCASTLE      FAIR      43  30  61 N9        30.14S

$$
WYZ014>020-022>026-101>103-261700-
CENTRAL WYOMING

CITY           SKY/WX    TMP DP  RH WIND       PRES   REMARKS
BIG PINEY      FAIR      21  17  84 CALM      30.43R
PINEDALE       FAIR      18  18 100 NW3       30.43S
DUBOIS         FAIR      37  23  56 NW20      30.35S WCI  27
LANDER         FAIR      32  23  69 CALM      30.28R
RIVERTON       FAIR      33  26  75 NE5       30.30S WCI  29
CASPER         FAIR      43  27  53 SW10G21   30.27R
DOUGLAS        FAIR      48  28  46 NW9       30.22R

$$
WYZ021-027>030-104>119-261700-
SOUTHERN WYOMING

CITY           SKY/WX    TMP DP  RH WIND       PRES   REMARKS
EVANSTON       FAIR      32  27  81 S5        30.42S WCI  27
KEMMERER       FAIR      30  27  86 N9        30.42S WCI  22
FORT BRIDGER   FAIR      43  28  55 SW5       30.44S
ROCK SPRINGS   FAIR      35  27  72 E3        30.42R
DIXON          FAIR      29  22  76 E10       30.49F WCI  20
RAWLINS        FAIR      37  25  61 S8        30.41S WCI  31
SARATOGA       FAIR      28  23  80 CALM      30.44R
LARAMIE        FAIR      33  25  72 SE3       30.35R
CHEYENNE       FAIR      52  22  30 W8        30.26R
TORRINGTON     FAIR      42  30  62 S3        30.18R
PINE BLUFFS    FAIR      52  27  37 NW20G26   30.22S

$$


USA.gov is the U.S. government's official web portal to all federal, state and local government web resources and services.